Weather in Kestenga

Russia / Republic of Karelia     65°53′11″N   31°49′51″E
temp.,
°C
wind,
m/s
gust,
m/s
humid.,
%
clouds,
%
prec.,
mm/h
press.,
hPa
HPBL,
m
28 february, sun
sun2800:00−6sw2390100 0.0 101043
03:00−5ssw3794100 0.0 1009215
06:00−6sw249799 0.0 1008110
09:00−7w239694 0.0 100940
12:00−3w249217 0.0 1009202
15:000w37918 0.0 1010350
18:00−1w389044 0.0 1010173
21:000w5138867 0.0 1009461
1 march, mon
mon100:00−1wsw41093100 0.0 1006329
03:00+2wsw51496100 0.0 1004730
06:00+2w61687100 0.0 1002852
09:00+1w51486100 0.0 1002726
12:00+1w5128467 0.0 1000854
15:00+2w5127933 0.0 9991003
18:00−1w4138133 0.0 998566
21:00−2w5168047 0.0 996806
2 march, tue
tue200:000wnw81882100 0.0 9951339
03:00−2nw91776100 0.0 998997
06:00−5nw7168172 0.0 1001665
09:00−5nw5138567 0.0 1005529
12:00−2nw6127342 0.0 10071036
15:00−1nw5127858 0.0 10091282
18:00−4nw4138327 0.0 1010609
21:00−5nw4128534 0.0 1011396
3 march, wed
wed300:00−6nw4119331 0.0 1013300
03:00−8wnw389216 0.0 1013159
06:00−7wnw399132 0.0 1012245
09:00−6w389167 0.0 1011233
12:00−4w4985100 0.0 1009391
15:00−2sw3687100 0.0 1004340
18:00−2ssw41097100 2.1 998593
21:000w6139399 3.1 9921010
4 march, thu
thu400:00−4wnw6148656 0.0 990687
03:00−6n5119472 0.6 991711
06:00−6n81690100 2.4 9941359
09:00−9nnw6148099 2.5 998765
12:00−8nnw5118216 0.0 1000635
15:00−6nnw6128153 0.1 10001240
18:00−7nw61386100 0.1 1000961
21:00−7nnw61581100 0.4 1001947